LAN505 SCEL-SCIE

Flight info

Callsign LAN505
Flight time 0h 49m
Altitude 31000
Route GELUS5B GELUS UQ809 ARUNI ARUNI6C
Aircraft A20N/M-SDE2E3FGHIRWXY/LB1

Departure

Time 2026-04-24 01:41
Airport Comodoro Arturo Merino Benítez International Airport (SCEL)

Arrival

Time 2026-04-24 02:31
Airport Carriel Sur International Airport (SCIE)
Time Latitude Longitude Altitude Speed Heading
2026-04-24 00:34 -33.39594 -70.79291 1565 ft 0 kts 176°
2026-04-24 01:20 -33.39589 -70.79292 1564 ft 3 kts 176°
2026-04-24 01:20 -33.39570 -70.79293 1564 ft 3 kts 176°
2026-04-24 01:20 -33.39551 -70.79298 1564 ft 3 kts 145°
2026-04-24 01:21 -33.39537 -70.79312 1564 ft 3 kts 139°
2026-04-24 01:21 -33.39524 -70.79330 1564 ft 3 kts 121°
2026-04-24 01:21 -33.39518 -70.79342 1564 ft 0 kts 113°
2026-04-24 01:21 -33.39513 -70.79360 1564 ft 0 kts 91°
2026-04-24 01:29 -33.39513 -70.79344 1564 ft 2 kts 88°
2026-04-24 01:29 -33.39513 -70.79324 1564 ft 2 kts 88°
2026-04-24 01:29 -33.39512 -70.79305 1564 ft 2 kts 85°
2026-04-24 01:29 -33.39511 -70.79286 1564 ft 2 kts 85°
2026-04-24 01:30 -33.39509 -70.79260 1564 ft 5 kts 85°
2026-04-24 01:30 -33.39506 -70.79208 1565 ft 8 kts 86°
2026-04-24 01:30 -33.39502 -70.79129 1565 ft 11 kts 87°
2026-04-24 01:30 -33.39500 -70.79027 1565 ft 13 kts 87°
2026-04-24 01:31 -33.39495 -70.78929 1565 ft 11 kts 79°
2026-04-24 01:31 -33.39447 -70.78864 1565 ft 11 kts 28°
2026-04-24 01:31 -33.39381 -70.78823 1565 ft 11 kts 28°
2026-04-24 01:31 -33.39311 -70.78797 1565 ft 11 kts
2026-04-24 01:32 -33.39237 -70.78802 1565 ft 11 kts 356°
2026-04-24 01:32 -33.39163 -70.78807 1565 ft 11 kts 357°
2026-04-24 01:32 -33.39086 -70.78809 1565 ft 11 kts 358°
2026-04-24 01:32 -33.39009 -70.78812 1564 ft 11 kts 357°
2026-04-24 01:33 -33.38931 -70.78817 1564 ft 11 kts 357°
2026-04-24 01:33 -33.38851 -70.78822 1564 ft 12 kts 357°
2026-04-24 01:33 -33.38771 -70.78827 1564 ft 12 kts 357°
2026-04-24 01:33 -33.38690 -70.78832 1564 ft 12 kts 357°
2026-04-24 01:34 -33.38609 -70.78835 1563 ft 12 kts 359°
2026-04-24 01:34 -33.38526 -70.78838 1563 ft 12 kts 358°
2026-04-24 01:34 -33.38444 -70.78841 1563 ft 12 kts 356°
2026-04-24 01:34 -33.38364 -70.78848 1563 ft 12 kts 356°
2026-04-24 01:35 -33.38284 -70.78854 1563 ft 12 kts 356°
2026-04-24 01:35 -33.38204 -70.78858 1563 ft 12 kts 360°
2026-04-24 01:35 -33.38117 -70.78863 1563 ft 14 kts 357°
2026-04-24 01:35 -33.38002 -70.78870 1563 ft 19 kts 358°
2026-04-24 01:36 -33.37864 -70.78873 1563 ft 20 kts 359°
2026-04-24 01:36 -33.37755 -70.78880 1562 ft 8 kts 356°
2026-04-24 01:36 -33.37698 -70.78884 1562 ft 8 kts 356°
2026-04-24 01:36 -33.37640 -70.78888 1562 ft 8 kts 357°
2026-04-24 01:37 -33.37584 -70.78877 1562 ft 8 kts 30°
2026-04-24 01:37 -33.37553 -70.78829 1562 ft 8 kts 73°
2026-04-24 01:37 -33.37548 -70.78766 1562 ft 8 kts 86°
2026-04-24 01:37 -33.37552 -70.78703 1562 ft 5 kts 103°
2026-04-24 01:38 -33.37575 -70.78678 1562 ft 4 kts 155°
2026-04-24 01:38 -33.37591 -70.78675 1562 ft 0 kts 176°
2026-04-24 01:40 -33.37665 -70.78670 1563 ft 27 kts 177°
2026-04-24 01:40 -33.38080 -70.78649 1564 ft 94 kts 176°
2026-04-24 01:41 -33.38959 -70.78600 1567 ft 156 kts 177°
2026-04-24 01:41 -33.40091 -70.78554 2063 ft 163 kts 176°
2026-04-24 01:41 -33.41225 -70.78504 2778 ft 164 kts 177°
2026-04-24 01:41 -33.42375 -70.78456 3481 ft 168 kts 178°
2026-04-24 01:42 -33.43620 -70.78406 3994 ft 196 kts 177°
2026-04-24 01:42 -33.45089 -70.78380 4332 ft 231 kts 190°
2026-04-24 01:42 -33.46564 -70.79337 4763 ft 258 kts 228°
2026-04-24 01:42 -33.47428 -70.81258 5481 ft 268 kts 250°
2026-04-24 01:43 -33.48074 -70.83383 6357 ft 274 kts 250°
2026-04-24 01:43 -33.48803 -70.85510 7220 ft 278 kts 247°
2026-04-24 01:43 -33.49627 -70.87620 8117 ft 282 kts 245°
2026-04-24 01:43 -33.50522 -70.89734 9068 ft 286 kts 244°
2026-04-24 01:44 -33.51459 -70.91852 10027 ft 290 kts 243°
2026-04-24 01:44 -33.52442 -70.94029 10665 ft 307 kts 243°
2026-04-24 01:44 -33.53504 -70.96316 11291 ft 322 kts 239°
2026-04-24 01:44 -33.55080 -70.98255 12138 ft 332 kts 215°
2026-04-24 01:45 -33.57119 -70.99601 13067 ft 337 kts 208°
2026-04-24 01:45 -33.59243 -71.00826 13966 ft 341 kts 207°
2026-04-24 01:45 -33.61393 -71.02066 14792 ft 344 kts 208°
2026-04-24 01:45 -33.63525 -71.03317 15613 ft 348 kts 208°
2026-04-24 01:46 -33.65696 -71.04610 16461 ft 351 kts 209°
2026-04-24 01:46 -33.67884 -71.05926 17317 ft 353 kts 209°
2026-04-24 01:46 -33.70093 -71.07261 18161 ft 356 kts 209°
2026-04-24 01:46 -33.72310 -71.08605 18915 ft 359 kts 209°
2026-04-24 01:47 -33.74548 -71.09965 19630 ft 362 kts 210°
2026-04-24 01:47 -33.76801 -71.11335 20337 ft 364 kts 210°
2026-04-24 01:47 -33.79071 -71.12717 21049 ft 367 kts 210°
2026-04-24 01:47 -33.81327 -71.14091 21771 ft 369 kts 210°
2026-04-24 01:48 -33.83620 -71.15490 22484 ft 372 kts 211°
2026-04-24 01:48 -33.85933 -71.16901 23186 ft 374 kts 211°
2026-04-24 01:48 -33.88264 -71.18325 23845 ft 377 kts 211°
2026-04-24 01:48 -33.90612 -71.19760 24367 ft 380 kts 211°
2026-04-24 01:49 -33.92980 -71.21208 24901 ft 383 kts 211°
2026-04-24 01:49 -33.95369 -71.22671 25424 ft 386 kts 211°
2026-04-24 01:49 -33.97766 -71.24138 25931 ft 389 kts 211°
2026-04-24 01:49 -34.00184 -71.25620 26426 ft 391 kts 211°
2026-04-24 01:50 -34.02586 -71.27093 26895 ft 394 kts 211°
2026-04-24 01:50 -34.05037 -71.28596 27363 ft 396 kts 211°
2026-04-24 01:50 -34.07503 -71.30110 27804 ft 399 kts 211°
2026-04-24 01:50 -34.09969 -71.31624 28240 ft 402 kts 211°
2026-04-24 01:51 -34.12472 -71.33162 28684 ft 404 kts 211°
2026-04-24 01:51 -34.14990 -71.34711 28983 ft 406 kts 211°
2026-04-24 01:51 -34.17459 -71.36224 29023 ft 389 kts 211°
2026-04-24 01:51 -34.19828 -71.37672 29025 ft 377 kts 211°
2026-04-24 01:52 -34.22151 -71.39099 29034 ft 374 kts 211°
2026-04-24 01:52 -34.26769 -71.41954 29032 ft 375 kts 211°
2026-04-24 01:53 -34.31415 -71.44831 29032 ft 376 kts 211°
2026-04-24 01:53 -34.36071 -71.47712 29043 ft 376 kts 211°
2026-04-24 01:54 -34.40703 -71.50579 29033 ft 375 kts 211°
2026-04-24 01:54 -34.45320 -71.53440 29043 ft 375 kts 211°
2026-04-24 01:55 -34.49977 -71.56330 29047 ft 376 kts 211°
2026-04-24 01:55 -34.54625 -71.59218 29044 ft 376 kts 211°
2026-04-24 01:56 -34.59274 -71.62110 29051 ft 376 kts 211°
2026-04-24 01:56 -34.63895 -71.64987 29202 ft 376 kts 211°
2026-04-24 01:57 -34.68543 -71.67885 29208 ft 376 kts 211°
2026-04-24 01:57 -34.73202 -71.70792 29208 ft 376 kts 211°
2026-04-24 01:58 -34.77849 -71.73696 29208 ft 376 kts 211°
2026-04-24 01:58 -34.82500 -71.76606 29211 ft 376 kts 211°
2026-04-24 01:59 -34.87121 -71.79501 29213 ft 376 kts 211°
2026-04-24 01:59 -34.91766 -71.82415 29210 ft 376 kts 211°
2026-04-24 01:59 -34.94095 -71.83878 29002 ft 377 kts 211°
2026-04-24 02:00 -34.96431 -71.85347 28723 ft 378 kts 211°
2026-04-24 02:00 -34.98765 -71.86814 28452 ft 377 kts 211°
2026-04-24 02:00 -35.01090 -71.88276 28190 ft 375 kts 211°
2026-04-24 02:00 -35.03406 -71.89732 27926 ft 374 kts 211°
2026-04-24 02:01 -35.05679 -71.91163 27663 ft 372 kts 211°
2026-04-24 02:01 -35.07975 -71.92611 27413 ft 371 kts 211°
2026-04-24 02:01 -35.10260 -71.94052 27165 ft 369 kts 211°
2026-04-24 02:01 -35.12538 -71.95490 26904 ft 368 kts 211°
2026-04-24 02:02 -35.14805 -71.96921 26647 ft 366 kts 211°
2026-04-24 02:02 -35.17065 -71.98350 26402 ft 365 kts 211°
2026-04-24 02:02 -35.19318 -71.99774 26154 ft 364 kts 211°
2026-04-24 02:02 -35.21561 -72.01194 25908 ft 362 kts 211°
2026-04-24 02:03 -35.25994 -72.04002 25433 ft 360 kts 211°
2026-04-24 02:03 -35.28216 -72.05411 25192 ft 359 kts 211°
2026-04-24 02:03 -35.30432 -72.06817 24949 ft 358 kts 211°
2026-04-24 02:04 -35.32636 -72.08217 24716 ft 357 kts 211°
2026-04-24 02:04 -35.34837 -72.09615 24480 ft 356 kts 211°
2026-04-24 02:04 -35.37032 -72.11012 24254 ft 355 kts 211°
2026-04-24 02:04 -35.39220 -72.12404 24031 ft 354 kts 211°
2026-04-24 02:05 -35.41399 -72.13791 23813 ft 353 kts 211°
2026-04-24 02:05 -35.43545 -72.15159 23536 ft 352 kts 211°
2026-04-24 02:05 -35.45712 -72.16540 23259 ft 350 kts 211°
2026-04-24 02:05 -35.47873 -72.17918 22992 ft 349 kts 211°
2026-04-24 02:06 -35.50026 -72.19293 22726 ft 348 kts 211°
2026-04-24 02:06 -35.52174 -72.20665 22459 ft 347 kts 211°
2026-04-24 02:06 -35.54310 -72.22031 22194 ft 346 kts 211°
2026-04-24 02:06 -35.56440 -72.23392 21947 ft 345 kts 211°
2026-04-24 02:07 -35.58537 -72.24735 21689 ft 344 kts 211°
2026-04-24 02:07 -35.60656 -72.26091 21428 ft 343 kts 211°
2026-04-24 02:07 -35.62768 -72.27444 21177 ft 342 kts 211°
2026-04-24 02:07 -35.64873 -72.28794 20928 ft 341 kts 211°
2026-04-24 02:08 -35.66969 -72.30139 20679 ft 340 kts 211°
2026-04-24 02:08 -35.69062 -72.31482 20435 ft 339 kts 211°
2026-04-24 02:08 -35.71152 -72.32824 20187 ft 338 kts 211°
2026-04-24 02:08 -35.73207 -72.34144 19949 ft 337 kts 211°
2026-04-24 02:09 -35.75282 -72.35479 19710 ft 336 kts 211°
2026-04-24 02:09 -35.77347 -72.36808 19470 ft 335 kts 211°
2026-04-24 02:09 -35.79416 -72.38140 19231 ft 334 kts 211°
2026-04-24 02:09 -35.81471 -72.39463 18999 ft 334 kts 211°
2026-04-24 02:10 -35.83524 -72.40786 18771 ft 332 kts 211°
2026-04-24 02:10 -35.85570 -72.42105 18535 ft 331 kts 211°
2026-04-24 02:10 -35.87591 -72.43409 18275 ft 324 kts 212°
2026-04-24 02:10 -35.89539 -72.44767 17899 ft 320 kts 214°
2026-04-24 02:11 -35.91441 -72.46176 17470 ft 318 kts 215°
2026-04-24 02:11 -35.93300 -72.47570 17052 ft 316 kts 215°
2026-04-24 02:11 -35.95173 -72.48978 16634 ft 315 kts 215°
2026-04-24 02:11 -35.97045 -72.50383 16197 ft 315 kts 215°
2026-04-24 02:12 -35.98906 -72.51779 15758 ft 309 kts 215°
2026-04-24 02:12 -36.00725 -72.53141 15355 ft 304 kts 215°
2026-04-24 02:12 -36.02532 -72.54498 14938 ft 305 kts 215°
2026-04-24 02:12 -36.04345 -72.55861 14521 ft 305 kts 215°
2026-04-24 02:13 -36.06164 -72.57228 14102 ft 306 kts 215°
2026-04-24 02:13 -36.07953 -72.58572 13660 ft 305 kts 215°
2026-04-24 02:13 -36.09763 -72.59934 13242 ft 303 kts 215°
2026-04-24 02:13 -36.11560 -72.61285 12836 ft 301 kts 215°
2026-04-24 02:14 -36.13345 -72.62630 12405 ft 300 kts 214°
2026-04-24 02:14 -36.15121 -72.63968 11986 ft 298 kts 214°
2026-04-24 02:14 -36.16886 -72.65299 11572 ft 296 kts 214°
2026-04-24 02:14 -36.18641 -72.66622 11159 ft 294 kts 214°
2026-04-24 02:15 -36.20386 -72.67938 10739 ft 293 kts 214°
2026-04-24 02:15 -36.22076 -72.69212 10499 ft 285 kts 214°
2026-04-24 02:15 -36.23763 -72.70485 10112 ft 283 kts 214°
2026-04-24 02:15 -36.25418 -72.71735 9904 ft 273 kts 214°
2026-04-24 02:16 -36.27006 -72.72934 9741 ft 262 kts 214°
2026-04-24 02:16 -36.28534 -72.74088 9595 ft 252 kts 214°
2026-04-24 02:16 -36.30003 -72.75199 9461 ft 242 kts 214°
2026-04-24 02:16 -36.31400 -72.76256 9396 ft 228 kts 215°
2026-04-24 02:17 -36.32711 -72.77246 9277 ft 214 kts 215°
2026-04-24 02:17 -36.33949 -72.78184 9147 ft 202 kts 215°
2026-04-24 02:17 -36.35120 -72.79072 9005 ft 192 kts 215°
2026-04-24 02:17 -36.36206 -72.79895 8863 ft 178 kts 216°
2026-04-24 02:18 -36.37224 -72.80667 8671 ft 165 kts 216°
2026-04-24 02:18 -36.38174 -72.81387 8425 ft 156 kts 216°
2026-04-24 02:18 -36.39089 -72.82077 8084 ft 153 kts 216°
2026-04-24 02:18 -36.40002 -72.82764 7737 ft 153 kts 215°
2026-04-24 02:19 -36.40902 -72.83440 7467 ft 146 kts 215°
2026-04-24 02:19 -36.41746 -72.84070 7219 ft 138 kts 215°
2026-04-24 02:19 -36.42558 -72.84677 6898 ft 135 kts 215°
2026-04-24 02:19 -36.43350 -72.85271 6559 ft 135 kts 215°
2026-04-24 02:20 -36.44148 -72.85870 6204 ft 133 kts 214°
2026-04-24 02:20 -36.44938 -72.86462 5842 ft 132 kts 213°
2026-04-24 02:20 -36.45719 -72.87048 5505 ft 131 kts 212°
2026-04-24 02:20 -36.46493 -72.87628 5144 ft 129 kts 212°
2026-04-24 02:21 -36.47260 -72.88203 4793 ft 128 kts 211°
2026-04-24 02:21 -36.48027 -72.88778 4402 ft 130 kts 210°
2026-04-24 02:21 -36.48793 -72.89351 4112 ft 127 kts 210°
2026-04-24 02:21 -36.49535 -72.89908 3971 ft 126 kts 210°
2026-04-24 02:22 -36.50279 -72.90466 3792 ft 124 kts 209°
2026-04-24 02:22 -36.51020 -72.91021 3628 ft 124 kts 209°
2026-04-24 02:22 -36.51778 -72.91514 3600 ft 123 kts 204°
2026-04-24 02:22 -36.52554 -72.91967 3577 ft 123 kts 203°
2026-04-24 02:23 -36.53334 -72.92419 3593 ft 124 kts 203°
2026-04-24 02:23 -36.54119 -72.92874 3597 ft 125 kts 203°
2026-04-24 02:23 -36.54908 -72.93332 3591 ft 125 kts 203°
2026-04-24 02:23 -36.55689 -72.93785 3594 ft 126 kts 203°
2026-04-24 02:24 -36.56481 -72.94244 3590 ft 126 kts 203°
2026-04-24 02:24 -36.57273 -72.94704 3589 ft 126 kts 203°
2026-04-24 02:24 -36.58064 -72.95163 3587 ft 125 kts 203°
2026-04-24 02:24 -36.58853 -72.95621 3589 ft 125 kts 203°
2026-04-24 02:25 -36.59643 -72.96079 3587 ft 125 kts 203°
2026-04-24 02:25 -36.60431 -72.96536 3552 ft 124 kts 203°
2026-04-24 02:25 -36.61210 -72.96988 3423 ft 123 kts 203°
2026-04-24 02:25 -36.61982 -72.97435 3216 ft 122 kts 203°
2026-04-24 02:26 -36.62737 -72.97873 3048 ft 121 kts 202°
2026-04-24 02:26 -36.63499 -72.98315 2905 ft 121 kts 202°
2026-04-24 02:26 -36.64260 -72.98756 2744 ft 121 kts 202°
2026-04-24 02:26 -36.65018 -72.99195 2569 ft 120 kts 203°
2026-04-24 02:27 -36.65776 -72.99635 2410 ft 120 kts 203°
2026-04-24 02:27 -36.66535 -73.00075 2247 ft 120 kts 203°
2026-04-24 02:27 -36.67289 -73.00513 2089 ft 120 kts 203°
2026-04-24 02:27 -36.68042 -73.00950 1918 ft 119 kts 203°
2026-04-24 02:28 -36.68792 -73.01386 1758 ft 119 kts 203°
2026-04-24 02:28 -36.69528 -73.01814 1601 ft 118 kts 203°
2026-04-24 02:28 -36.70270 -73.02245 1452 ft 117 kts 203°
2026-04-24 02:28 -36.71008 -73.02674 1290 ft 117 kts 203°
2026-04-24 02:29 -36.71748 -73.03104 1110 ft 118 kts 204°
2026-04-24 02:29 -36.72495 -73.03537 954 ft 120 kts 205°
2026-04-24 02:29 -36.73246 -73.03974 765 ft 121 kts 205°
2026-04-24 02:29 -36.74000 -73.04419 615 ft 120 kts 206°
2026-04-24 02:30 -36.74761 -73.04866 401 ft 121 kts 204°
2026-04-24 02:30 -36.75519 -73.05317 195 ft 121 kts 206°
2026-04-24 02:30 -36.76273 -73.05751 36 ft 120 kts 202°
2026-04-24 02:30 -36.76840 -73.06064 30 ft 82 kts 204°
2026-04-24 02:31 -36.77175 -73.06256 31 ft 23 kts 205°
2026-04-24 02:31 -36.77344 -73.06338 32 ft 28 kts 178°
2026-04-24 02:31 -36.77502 -73.06321 35 ft 20 kts 174°
2026-04-24 02:31 -36.77611 -73.06310 35 ft 10 kts 170°
2026-04-24 02:32 -36.77615 -73.06275 35 ft 7 kts 30°
2026-04-24 02:32 -36.77548 -73.06236 35 ft 8 kts 24°
2026-04-24 02:32 -36.77513 -73.06146 33 ft 17 kts 114°
2026-04-24 02:32 -36.77566 -73.06051 33 ft 18 kts 155°
2026-04-24 02:33 -36.77627 -73.06025 34 ft 0 kts 160°